RYR185 EDDF-EBCI

Flight info

Callsign RYR185
Flight time N/A
Altitude 20000
Route SOBRA2L/18 SOBRA DCT ROPUV DCT PESOV DCT LNO
Aircraft B738/M-SDE2E3FGHIRWXY/LB1

Departure

Time N/A
Airport Frankfurt Main Airport (EDDF)

Arrival

Time 2026-05-06 17:50
Airport Brussels South Charleroi Airport (EBCI)
Time Latitude Longitude Altitude Speed Heading
2026-05-06 17:42 50.61616 4.99246 7857 ft 233 kts 248°
2026-05-06 17:42 50.61163 4.97688 7583 ft 235 kts 248°
2026-05-06 17:43 50.58299 4.87864 5927 ft 226 kts 249°
2026-05-06 17:43 50.57653 4.85628 5530 ft 225 kts 249°
2026-05-06 17:44 50.57010 4.83408 5141 ft 225 kts 249°
2026-05-06 17:44 50.56355 4.81154 4756 ft 224 kts 249°
2026-05-06 17:44 50.55724 4.78966 4384 ft 223 kts 251°
2026-05-06 17:44 50.55092 4.76744 4000 ft 218 kts 249°
2026-05-06 17:45 50.54463 4.74614 3611 ft 212 kts 250°
2026-05-06 17:45 50.53872 4.72564 3235 ft 207 kts 250°
2026-05-06 17:45 50.53287 4.70529 2993 ft 195 kts 250°
2026-05-06 17:45 50.52768 4.68734 2997 ft 170 kts 251°
2026-05-06 17:46 50.52292 4.67073 2991 ft 164 kts 250°
2026-05-06 17:46 50.51824 4.65447 3018 ft 167 kts 250°
2026-05-06 17:46 50.51342 4.63779 2917 ft 166 kts 250°
2026-05-06 17:46 50.50874 4.62157 2713 ft 162 kts 250°
2026-05-06 17:47 50.50407 4.60539 2493 ft 162 kts 250°
2026-05-06 17:47 50.49955 4.58977 2288 ft 152 kts 250°
2026-05-06 17:47 50.49521 4.57470 2125 ft 154 kts 250°
2026-05-06 17:47 50.49083 4.55957 1827 ft 150 kts 248°
2026-05-06 17:48 50.48669 4.54527 1659 ft 145 kts 249°
2026-05-06 17:48 50.48248 4.53074 1467 ft 147 kts 249°
2026-05-06 17:48 50.47834 4.51645 1277 ft 143 kts 249°
2026-05-06 17:48 50.47421 4.50225 1080 ft 143 kts 248°
2026-05-06 17:49 50.47017 4.48834 896 ft 138 kts 248°
2026-05-06 17:49 50.46612 4.47440 693 ft 142 kts 248°
2026-05-06 17:49 50.46216 4.46082 606 ft 129 kts 247°
2026-05-06 17:49 50.45900 4.44994 618 ft 91 kts 246°
2026-05-06 17:50 50.45708 4.44327 617 ft 48 kts 247°
2026-05-06 17:50 50.45636 4.44033 618 ft 16 kts 291°
2026-05-06 17:50 50.45711 4.44031 618 ft 3 kts 45°
2026-05-06 17:53 50.45714 4.44036 618 ft 2 kts 45°
2026-05-06 17:53 50.45722 4.44048 617 ft 1 kts 45°
2026-05-06 17:53 50.45726 4.44054 617 ft 0 kts 45°
2026-05-06 17:54 50.45729 4.44060 618 ft 4 kts 52°
2026-05-06 17:54 50.45798 4.44199 617 ft 19 kts 52°
2026-05-06 17:54 50.45877 4.44360 617 ft 20 kts 53°
2026-05-06 17:54 50.45948 4.44539 617 ft 16 kts 65°
2026-05-06 17:55 50.46002 4.44724 617 ft 18 kts 66°
2026-05-06 17:55 50.46065 4.44933 617 ft 20 kts 64°
2026-05-06 17:55 50.46120 4.45124 617 ft 21 kts 67°
2026-05-06 17:55 50.46199 4.45389 616 ft 27 kts 64°
2026-05-06 17:56 50.46274 4.45653 612 ft 26 kts 66°
2026-05-06 17:56 50.46358 4.45943 606 ft 33 kts 65°
2026-05-06 17:56 50.46453 4.46262 600 ft 30 kts 66°
2026-05-06 17:56 50.46539 4.46565 593 ft 29 kts 65°
2026-05-06 17:57 50.46610 4.46788 589 ft 14 kts 35°
2026-05-06 17:57 50.46675 4.46776 589 ft 0 kts 342°
2026-05-06 17:57 50.46697 4.46773 589 ft 9 kts 17°
2026-05-06 17:57 50.46748 4.46842 588 ft 8 kts 356°
2026-05-06 17:58 50.46789 4.46819 588 ft 0 kts 336°
2026-05-06 17:58 50.46790 4.46818 588 ft 0 kts 333°